TimeMST,TemperatureF,Dew PointF,Humidity,Sea Level PressureIn,VisibilityMPH,Wind Direction,Wind SpeedMPH,Gust SpeedMPH,PrecipitationIn,Events,Conditions,WindDirDegrees,DateUTC
12:53 AM,34.0,21.9,61,29.76,10.0,South,4.6,-,N/A,,Clear,190,2012-12-01 07:53:00
1:53 AM,36.0,24.1,62,29.76,10.0,SW,4.6,-,N/A,,Partly Cloudy,220,2012-12-01 08:53:00
2:53 AM,44.1,27.0,51,29.75,10.0,West,9.2,-,N/A,,Overcast,280,2012-12-01 09:53:00
3:53 AM,52.0,28.9,41,29.76,10.0,NW,11.5,-,N/A,,Partly Cloudy,310,2012-12-01 10:53:00
4:53 AM,52.0,30.9,45,29.78,10.0,WNW,17.3,-,N/A,,Clear,290,2012-12-01 11:53:00
5:53 AM,50.0,30.2,47,29.82,10.0,WNW,13.8,-,N/A,,Clear,290,2012-12-01 12:53:00
6:53 AM,46.0,30.9,56,29.82,10.0,WNW,13.8,-,N/A,,Clear,290,2012-12-01 13:53:00
7:53 AM,48.9,32.0,52,29.84,10.0,West,16.1,-,N/A,,Clear,280,2012-12-01 14:53:00
8:53 AM,54.0,32.0,43,29.82,10.0,West,19.6,-,N/A,,Clear,280,2012-12-01 15:53:00
9:53 AM,60.1,32.0,35,29.82,10.0,West,26.5,34.5,N/A,,Clear,280,2012-12-01 16:53:00
10:53 AM,63.0,30.0,29,29.81,10.0,WNW,31.1,36.8,N/A,,Clear,290,2012-12-01 17:53:00
11:53 AM,63.0,30.0,29,29.80,10.0,WNW,24.2,32.2,N/A,,Clear,290,2012-12-01 18:53:00
12:53 PM,64.0,26.1,24,29.81,10.0,West,26.5,38.0,N/A,,Clear,280,2012-12-01 19:53:00
1:53 PM,63.0,27.0,26,29.81,10.0,WNW,24.2,31.1,N/A,,Clear,290,2012-12-01 20:53:00
2:53 PM,60.1,28.0,30,29.83,10.0,WNW,11.5,-,N/A,,Clear,290,2012-12-01 21:53:00
3:53 PM,53.1,28.9,40,29.83,10.0,WNW,6.9,-,N/A,,Clear,300,2012-12-01 22:53:00
4:53 PM,41.0,27.0,57,29.88,10.0,WSW,5.8,-,N/A,,Clear,240,2012-12-01 23:53:00
5:53 PM,42.1,27.0,55,29.88,10.0,West,5.8,-,N/A,,Clear,260,2012-12-02 00:53:00
6:53 PM,42.1,27.0,55,29.91,10.0,West,5.8,-,N/A,,Clear,270,2012-12-02 01:53:00
7:53 PM,34.0,25.0,70,29.93,10.0,Calm,Calm,-,N/A,,Clear,0,2012-12-02 02:53:00
8:53 PM,32.0,25.0,75,29.94,10.0,SE,5.8,-,N/A,,Clear,140,2012-12-02 03:53:00
9:53 PM,32.0,26.1,79,29.92,10.0,WSW,9.2,-,N/A,,Clear,240,2012-12-02 04:53:00
10:53 PM,35.1,26.1,70,29.91,10.0,SW,6.9,-,N/A,,Clear,220,2012-12-02 05:53:00
11:53 PM,35.6,26.6,70,29.93,10.0,WSW,4.6,-,N/A,,Clear,240,2012-12-02 06:53:00